Torna al catalogo

CZ-6A DEB

AttivoPO
NORAD 61823·DEBRIS·🇨🇳 China

Lanciato Aug 6, 2024 da Taiyuan Satellite Launch Center

Loading…

Prossimi Passaggi (prossime 24 ore)

TLE

AggiornatoSource: Space-Track

Epoca: Sep 14, 2026, 11:43 UTC

1 61823U 24140ACP 26257.48887817  .00001925  00000-0  10472-2 0  9997
2 61823  89.0667 272.3460 0107969 302.4815  56.5967 14.09011591103246

Traccia CZ-6A DEB in tempo reale con AllMySat

Download on the App Store